Location: Unspecified
(37.6100°N, 2.7800°W)
Time: 13:08:31
(UTC+00:00)

Starlink (trailer) - Visible Passes

Search period start: 19 June 2019 00:00
Search period end: 29 June 2019 00:00
Orbit: 549 x 552 km, 53.0° (Epoch: 19 June)

Date Brightness Start Highest point End Pass type
(mag) Time Alt. Az. Time Alt. Az. Time Alt. Az.
19 Jun 5.0 20:10:33 10° WNW 20:14:16 32° SW 20:17:58 10° SSE visible
20 Jun 5.5 20:06:08 10° WNW 20:09:25 23° SW 20:12:41 10° S visible
21 Jun 6.1 20:02:24 10° W 20:04:56 16° SW 20:07:29 10° SSW visible
